Regional Weather Roundup
Issued by NWS

Home | Current Version | Previous Version | Text Only | Print | Product List | Glossary Off
Versions: 1 2 3 4 5 6 7 8 9 10 11 12 13 14 15 16 17 18 19 20 21 22 23 24 25 26 27 28 29 30 31 32 33 34 35 36 37 38 39 40 41 42 43 44 45 46 47 48 49 50

000
ASUS43 KTOP 051259
RWRKS

WEATHER ROUNDUP FOR KANSAS
NATIONAL WEATHER SERVICE GOODLAND KS
800 AM CDT SUN JUL 05 2015

NOTE:  "FAIR" INDICATES FEW OR NO CLOUDS BELOW 12,000 FEET WITH NO
SIGNIFICANT WEATHER AND/OR OBSTRUCTIONS TO VISIBILITY.

KSZ001>006-013>018-027>032-041>047-051400-
NORTHWEST KANSAS

CITY           SKY/WX    TMP DP  RH WIND       PRES   REMARKS
GOODLAND       SUNNY     69  62  78 S15       29.89S
HAYS           MOSUNNY   75  63  64 S14       29.87S
HILL CITY      MOSUNNY   75  67  76 S10       29.83F
RUSSELL        MOSUNNY   74  67  78 S18       29.85F
$$

KSZ061>065-074>080-084>089-051400-
SOUTHWEST KANSAS

CITY           SKY/WX    TMP DP  RH WIND       PRES   REMARKS
DODGE CITY     MOSUNNY   73  64  73 S15       29.93S
ELKHART          N/A     73  56  55 SW12        N/A
GARDEN CITY    SUNNY     72  64  76 S16       29.90F
GREAT BEND     MOSUNNY   72  64  78 S14       29.90S
LIBERAL        SUNNY     73  63  68 S16       29.96F
$$

KSZ066>073-081>083-090>101-051400-
SOUTHEAST KANSAS

CITY           SKY/WX    TMP DP  RH WIND       PRES   REMARKS
CHANUTE        MOSUNNY   74  71  91 S9        30.00R
COFFEYVILLE    PTSUNNY   74  70  87 SE7       29.99S
HUTCHINSON     MOSUNNY   74  69  85 S14       29.92S
MEDICINE LODGE   N/A     74  70  87 SE7       29.92S
NEWTON         CLOUDY    75  66  73 S13       29.95F
PARSONS        MOSUNNY   75  71  87 S7        30.00S
WICHITA INTL   PTSUNNY   75  70  84 S12       29.94R
WICHITA JABRA  PTSUNNY   75  70  84 S9        29.94S
WICHITA MCCONL PTSUNNY   76  70  81 SE13      29.95R
WINFIELD       MOSUNNY   75  70  84 SE10      29.96S
$$

KSZ007>012-019>026-033>040-048>060-102>105-051400-
NORTHEAST KANSAS

CITY           SKY/WX    TMP DP  RH WIND       PRES   REMARKS
CONCORDIA      PTSUNNY   76  69  79 S17G24    29.89R
EMPORIA        MOSUNNY   73  68  84 SE14      29.95F
LAWRENCE       SUNNY     71  68  90 SE6       29.98S FOG
MANHATTAN      PTSUNNY   77  69  76 S7        29.92S
OLATHE IND     MOSUNNY   71  68  90 S8        30.00S FOG
OLATHE EXE     MOSUNNY   70  67  90 S7        29.99S FOG
SALINA         CLOUDY    80  69  69 S15G23    29.88F
TOPEKA BILLARD MOSUNNY   73  68  84 E3        29.97R
TOPEKA FORBES  MOSUNNY   73  67  81 SE9       29.97R
$$



USA.gov is the U.S. government's official web portal to all federal, state and local government web resources and services.